Content
SEND FEEDBACK

Daily
Averages
Monthly
Summary
United States of America

CHESTERFIELD, MISSOURI


Home > North America > United States > Missouri
Elevation: 559 feet     Latitude: 38 41N     Longitude: 090 31W

WEATHER
 
SELECT A DAY
Number of Records: 203,490;   Date Range: 1/1/95 - 8/12/14
 
SHARE

PRINT THIS DATA

[ ← Previous Day ]
WEATHER ALMANAC - MAY 9, 2013
[ Next Day → ]
[ °C ]   °F
Weather ElementAverageHighLow
Temperature69.9 °F75.9 °F (5:51 pm)64.9 °F (11:51 pm)
Dewpoint59 °F63 °F (12:51 pm)55.9 °F (2:51 am)
Humidity68.7 %84 % (12:51 pm)52 % (5:51 pm)
Barometer29.90 in29.95 in (12:00 pm)29.83 in (6:51 pm)
Wind Speed8.1 mph18.4 mph (4:51 pm)
Wind Gust27.6 mph (11:55 am)
Weather ElementAverage
Visibility9.1 mi
Wind DirectionSSE (165.5 °)

Weather ElementTotal
Precipitation0.62 in
Cooling Degree Days5.4 (Base 65)
Growing Degree Days20.4 (Base 50)
Averaged from 29 records on May 9, 2013
WEATHER CONDITIONS BREAKOUT
WIND DIRECTION BREAKOUT
WEATHER BY HOUR - MAY 9, 2013
[ °C ]   °F
Local TimeTemperatureDewpointHumidityBarometerVisibilityWind DirectionWind SpeedGust SpeedPrecipitationEventsConditions
1:51 AM68.0 °F57.0 °F68 %29.94 in10.0 miSE (140°)4.6 mphOvercast
2:51 AM68.0 °F55.9 °F65 %29.93 in10.0 miSSE (150°)9.2 mphMostly Cloudy
3:51 AM68.0 °F55.9 °F65 %29.92 in10.0 miSSE (150°)4.6 mphMostly Cloudy
4:51 AM68.0 °F55.9 °F65 %29.91 in10.0 miSouth (170°)9.2 mphMostly Cloudy
5:51 AM66.9 °F57.0 °F70 %29.91 in10.0 miSouth (180°)6.9 mphOvercast
6:51 AM68.0 °F55.9 °F65 %29.91 in10.0 miSouth (180°)8.1 mphMostly Cloudy
7:51 AM70.0 °F57.9 °F65 %29.91 in10.0 miSouth (170°)5.8 mphMostly Cloudy
8:51 AM71.1 °F57.9 °F63 %29.91 in10.0 miWSW (240°)3.5 mphOvercast
9:51 AM69.1 °F61.0 °F75 %29.92 in8.0 miCalm0.04 inRainLight Rain
10:51 AM71.1 °F61.0 °F70 %29.93 in10.0 miWNW (290°)3.5 mph0.00 inRainLight Rain
11:51 AM72.0 °F61.0 °F68 %29.93 in3.0 miWSW (240°)9.2 mph0.00 inRainLight Rain
11:55 AM69.8 °F60.8 °F73 %29.94 in2.5 miSW (220°)17.3 mph27.6 mph0.05 inRain-ThunderstormThunderstorms and Rain
12:00 PM68.0 °F60.8 °F78 %29.95 in4.0 miSSW (210°)13.8 mph27.6 mph0.11 inRain-ThunderstormLight Thunderstorms and Rain
12:08 PM68.0 °F62.6 °F83 %29.94 in7.0 miSouth (170°)9.2 mph0.14 inRain-ThunderstormLight Thunderstorms and Rain
12:25 PM68.0 °F62.6 °F83 %29.91 in10.0 miSE (130°)8.1 mph0.14 inRainLight Rain
12:51 PM68.0 °F63.0 °F84 %29.88 in10.0 miEast (80°)3.5 mph0.14 inRainLight Rain
1:51 PM72.0 °F62.1 °F71 %29.88 in10.0 miSSW (200°)12.7 mph0.00 inOvercast
2:12 PM71.6 °F62.6 °F73 %29.89 in10.0 miSouth (180°)10.4 mph17.3 mphOvercast
2:48 PM71.6 °F60.8 °F69 %29.88 in10.0 miSSW (200°)12.7 mphOvercast
2:51 PM72.0 °F61.0 °F68 %29.86 in10.0 miSSW (200°)16.1 mphOvercast
3:51 PM71.1 °F60.1 °F68 %29.85 in10.0 miWest (270°)13.8 mph26.5 mphMostly Cloudy
4:51 PM75.0 °F57.9 °F55 %29.84 in10.0 miWSW (250°)18.4 mph27.6 mphScattered Clouds
5:51 PM75.9 °F57.0 °F52 %29.85 in10.0 miWSW (250°)18.4 mphMostly Cloudy
6:51 PM75.9 °F57.0 °F52 %29.83 in10.0 miWest (270°)10.4 mphMostly Cloudy
7:51 PM73.0 °F55.9 °F55 %29.85 in10.0 miWest (260°)6.9 mphMostly Cloudy
8:51 PM69.8 °F57.2 °F64 %29.89 in10.0 miCalmScattered Clouds
9:51 PM66.9 °F57.0 °F70 %29.88 in10.0 miCalmScattered Clouds
10:51 PM66.0 °F59.0 °F78 %29.88 in10.0 miCalmScattered Clouds
11:51 PM64.9 °F57.9 °F78 %29.88 in10.0 miCalmMostly Cloudy
Hourly data recorded from KSTL, located miles away from Chesterfield, Missouri







STORIES FROM OUR PARTNERS